Notices

What's New in latest Release from April 7th, 2021:

- Updated Glossary, including Speed of Maximum Gust, and Total Hourly Precipitation

- Updated national and regional climate services offices contacts and prices information

- Addition of station inventory lists for 1981-2010, 1971-2000, and 1961-1990 Normals.

If you haven't already, please take our survey and provide feedback about our website: https://eccc.sondage-survey.ca/f/LanguageSelection.aspx?s=442ca660-fcf1-47c0-95a9-59707d6fd709

Hourly Data Report for April 10, 2020

MIRAMICHI RCS
NEW BRUNSWICK
Current Station Operator: ECCC - MSC

47°00'34.000" N
65°27'54.000" W
33.00 m
8100989
71744
ACQ

Download Data

Hourly Data (April 2020)
Hourly Data Report for April 10, 2020
TIME
LST
Temp Definition
°C
Dew Point Definition
°C
Rel Hum Definition
%
Precip. Amount Definition
mm

Wind Dir Definition
10's deg

Wind Spd Definition
km/h
Visibility Definition
km
Stn Press Definition
kPa
Hmdx Definition


Wind Chill Definition


Weather Definition


00:00 0.1 -0.7 94 LegendMM 9 22   99.03     LegendNANA
01:00 -0.2 -1.2 93 LegendMM 6 24   98.73   -6 LegendNANA
02:00 0.5 -3.6 74 LegendMM 8 28   98.54     LegendNANA
03:00 -1.5 -2.3 95 LegendMM 8 36   98.38   -9 LegendNANA
04:00 -1.2 -2.2 93 LegendMM 7 36   98.18   -9 LegendNANA
05:00 -1.2 -2.1 94 LegendMM 7 39   98.00   -9 LegendNANA
06:00 -1.4 -2.0 95 LegendMM 6 44   97.78   -10 LegendNANA
07:00 -1.2 -2.1 94 LegendMM 5 45   97.55   -9 LegendNANA
08:00 -1.9 -3.0 92 LegendMM 6 45   97.39   -10 LegendNANA
09:00 -2.0 -3.5 90 LegendMM 5 40   97.26   -10 LegendNANA
10:00 -1.7 -3.1 90 LegendMM 4 34   97.12   -9 LegendNANA
11:00 -1.5 -2.6 92 LegendMM 4 36   96.97   -9 LegendNANA
12:00 -0.9 -2.4 90 LegendMM 4 31   96.86   -8 LegendNANA
13:00 -0.9 -2.2 91 LegendMM 3 24   96.83   -7 LegendNANA
14:00 -0.7 -2.2 89 LegendMM 3 24   96.82   -7 LegendNANA
15:00 -0.3 -2.3 86 LegendMM 2 23   96.86   -6 LegendNANA
16:00 -0.2 -2.6 84 LegendMM 1 17   96.93   -5 LegendNANA
17:00 -0.8 -2.2 91 LegendMM 35 17   97.07   -6 LegendNANA
18:00 -0.8 -2.0 91 LegendMM 33 16   97.18   -6 LegendNANA
19:00 -0.8 -2.8 86 LegendMM 33 18   97.26   -6 LegendNANA
20:00 -0.9 -2.7 87 LegendMM 33 17   97.37   -6 LegendNANA
21:00 -0.8 -3.5 82 LegendMM 32 19   97.43   -6 LegendNANA
22:00 -0.6 -3.8 79 LegendMM 31 15   97.50   -5 LegendNANA
23:00 -0.6 -4.2 76 LegendMM 32 16   97.58   -5 LegendNANA

Notes on Data Quality.

Legend

  • E = Estimated
  • M = Missing
  • NA = Not Available*
  • [empty] = Indicates an unobserved value
Date modified: